TimeCST,TemperatureF,Dew PointF,Humidity,Sea Level PressureIn,VisibilityMPH,Wind Direction,Wind SpeedMPH,Gust SpeedMPH,PrecipitationIn,Events,Conditions,WindDirDegrees,DateUTC
12:00 AM,77,75,93,29.86,12,Calm,Calm,,,,Scattered Clouds,,2012-10-17 06:00:00
3:00 AM,74,72,91,29.83,12,West,3.5,,,,Scattered Clouds,280,2012-10-17 09:00:00
5:00 AM,73.4,71.6,94,29.83,6.2,West,3.5,-,N/A,,Partly Cloudy,280,2012-10-17 11:00:00
6:00 AM,73,71,92,29.85,12,WNW,4.6,,,,Scattered Clouds,290,2012-10-17 12:00:00
6:00 AM,73.4,71.6,94,29.83,6.2,WNW,4.6,-,N/A,,Scattered Clouds,290,2012-10-17 12:00:00
7:00 AM,75.2,73.4,94,29.86,6.2,West,3.5,-,N/A,,Scattered Clouds,270,2012-10-17 13:00:00
8:00 AM,78.8,73.4,83,29.89,6.2,WNW,5.8,-,N/A,,Scattered Clouds,300,2012-10-17 14:00:00
9:00 AM,82,75,74,29.90,16,West,2.3,,,,Scattered Clouds,270,2012-10-17 15:00:00
9:00 AM,82.4,75.2,79,29.89,6.2,West,2.3,-,N/A,,Scattered Clouds,270,2012-10-17 15:00:00
10:00 AM,86.0,75.2,70,29.89,6.2,Calm,Calm,-,N/A,,Mostly Cloudy,0,2012-10-17 16:00:00
11:00 AM,87.8,75.2,66,29.86,6.2,NE,3.5,-,N/A,,Mostly Cloudy,50,2012-10-17 17:00:00
12:00 PM,89,75,54,29.84,16,NE,3.5,,,,Partly Cloudy,50,2012-10-17 18:00:00
12:00 PM,89.6,75.2,62,29.84,6.2,NE,3.5,-,N/A,,Mostly Cloudy,50,2012-10-17 18:00:00
1:00 PM,87.8,75.2,66,29.81,6.2,East,5.8,-,N/A,,Mostly Cloudy,90,2012-10-17 19:00:00
2:00 PM,87.8,75.2,66,29.78,6.2,East,4.6,-,N/A,,Mostly Cloudy,100,2012-10-17 20:00:00
3:00 PM,89,75,56,29.77,16,East,8.1,,,,Scattered Clouds,90,2012-10-17 21:00:00
3:00 PM,89.6,75.2,62,29.76,6.2,East,8.1,-,N/A,,Mostly Cloudy,90,2012-10-17 21:00:00
4:00 PM,87.8,73.4,62,29.76,6.2,East,6.9,-,N/A,,Mostly Cloudy,90,2012-10-17 22:00:00
5:00 PM,86.0,75.2,70,29.78,6.2,East,5.8,-,N/A,,Mostly Cloudy,90,2012-10-17 23:00:00
6:00 PM,82,75,73,29.80,12,East,4.6,,,,Scattered Clouds,100,2012-10-18 00:00:00
6:00 PM,82.4,75.2,79,29.79,6.2,East,4.6,-,N/A,,Mostly Cloudy,100,2012-10-18 00:00:00
9:00 PM,80,77,89,29.86,12,Calm,Calm,,,,Scattered Clouds,,2012-10-18 03:00:00